Hourly Data Report for October 08, 2015

All times are specified in Local Standard Time (LST). Add 1 hour to adjust for Daylight Saving Time where and when it is observed.

OTTAWA INTL A
ONTARIO

45°19'00.000" N
75°40'00.000" W
114.90 m
6106001
71628
YOW

Download Data

Hourly Data (October 2015)
Hourly Data Report for October 8, 2015
Temp Definition
°C
Dew Point Temp Definition
°C
Rel Hum Definition
%
Wind Dir Definition
10's deg

Wind Spd Definition
km/h
Visibility Definition
km
Stn Press Definition
kPa
Hmdx Definition


Wind Chill Definition


Weather Definition


TIME
00:00 Legend Double Dagger 6.9 2.0 71 36 8 24.1 100.69     LegendNANA
01:00 Legend Double Dagger 6.5 1.2 69 35 10 24.1 100.73     Clear
02:00 Legend Double Dagger 6.0 1.2 71 35 10 24.1 100.78     LegendNANA
03:00 Legend Double Dagger 4.8 0.9 76 35 9 24.1 100.79     LegendNANA
04:00 Legend Double Dagger 3.2 0.8 84 32 7 24.1 100.81     Clear
05:00 Legend Double Dagger 3.5 0.6 81 34 8 24.1 100.86     LegendNANA
06:00 Legend Double Dagger 3.0 1.1 87 35 12 24.1 100.89     LegendNANA
07:00 Legend Double Dagger 4.6 2.6 87 34 10 24.1 100.96     Mainly Clear
08:00 Legend Double Dagger 6.3 2.8 78 1 14 24.1 101.00     LegendNANA
09:00 Legend Double Dagger 7.9 2.6 69 2 12 24.1 101.01     LegendNANA
10:00 Legend Double Dagger 9.1 2.7 64 4 12 24.1 100.99     Mainly Clear
11:00 Legend Double Dagger 10.8 1.7 53 36 6 24.1 100.96     LegendNANA
12:00 Legend Double Dagger 11.1 0.0 46 2 8 24.1 100.90     LegendNANA
13:00 Legend Double Dagger 11.4 -0.1 45 30 4 24.1 100.83     Mostly Cloudy
14:00 Legend Double Dagger 11.8 -0.3 43 21 4 24.1 100.76     LegendNANA
15:00 Legend Double Dagger 12.2 -0.3 42 13 8 24.1 100.69     LegendNANA
16:00 Legend Double Dagger 12.1 -0.7 41 12 6 24.1 100.68     Mostly Cloudy
17:00 Legend Double Dagger 10.2 1.6 55 7 7 24.1 100.65     LegendNANA
18:00 Legend Double Dagger 8.6 2.2 64 9 9 24.1 100.63     LegendNANA
19:00 Legend Double Dagger 8.4 2.0 64 10 11 24.1 100.58     Cloudy
20:00 Legend Double Dagger 8.9 1.6 60 9 7 24.1 100.58     LegendNANA
21:00 Legend Double Dagger 8.7 2.3 64 9 9 24.1 100.53     LegendNANA
22:00 Legend Double Dagger 8.8 1.7 61 9 19 24.1 100.37     Cloudy
23:00 Legend Double Dagger 8.4 2.2 65 9 10 24.1 100.34     LegendNANA

Notes on Data Quality.

Legend

  • E = Estimated
  • M = Missing
  • NA = Not Available
  • ‡ = Partner data that is not subject to review by the National Climate Archives
Date modified: